Fort Indiantown Gap, PA

9:23 PM EDT on October 16, 2019 (GMT -0400)
Muir Army Air Field

Weather History for KMUI - September, 2019

Change the Weather History Date:

Thursday, September 19, 2019

  Actual Average Record
Temperature  
Mean Temperature 58 °F -  
Max Temperature 71 °F 71 °F 84 °F (2005)
Min Temperature 45 °F 55 °F 41 °F (2013)
Degree Days  
Heating Degree Days 8    
Growing Degree Days 8 (Base 50)    
Moisture  
Dew Point 45 °F    
Average Humidity 68    
Maximum Humidity 95    
Minimum Humidity 32    
Precipitation  
Precipitation 0.00 in - - ()
Sea Level Pressure  
Sea Level Pressure 30.33 in    
Wind  
Wind Speed 2 mph (South)    
Max Wind Speed 7 mph    
Max Gust Speed -    
Visibility 10 miles    
Events      
Averages and records for this station are not official NWS values.
T = Trace of Precipitation, MM = Missing Value Source: NWS Daily Summary

Daily Weather History Graph

Daily Weather History Graph

Search for Another Location

Airport or City:

Astronomy

Sep. 19, 2019 Rise Set
Actual Time 6:50 AM EDT 7:08 PM EDT
Civil Twilight 6:23 AM EDT 7:36 PM EDT
Nautical Twilight 5:51 AM EDT 8:08 PM EDT
Astronomical Twilight 5:18 AM EDT 8:40 PM EDT
Moon 10:15 PM EDT (9/19) 11:52 AM EDT (9/19)
Length of Visible Light 13h 12m
Length of Day
12h 18m
Waning Gibbous, 74% of the Moon is Illuminated
Sep 19
Waning Gibbous
Sep 21
Last Quarter
Sep 28
New
Oct 5
First Quarter
Oct 13
Full

Hourly Weather History & Observations

Time (EDT) Temp. Dew Point Humidity Pressure Visibility Wind Dir Wind Speed Gust Speed Precip Events Conditions
12:56 AM 54.7 °F 47.3 °F 76% 30.32 in 10.0 mi NE 3.5 mph - N/A   Clear
1:56 AM 52.7 °F 46.8 °F 80% 30.33 in 10.0 mi Calm Calm - N/A   Clear
2:56 AM 48.9 °F 46.0 °F 90% 30.33 in 10.0 mi Calm Calm - N/A   Clear
3:56 AM 47.7 °F 45.7 °F 93% 30.33 in 10.0 mi Calm Calm - N/A   Clear
4:56 AM 47.8 °F 46.2 °F 94% 30.33 in 10.0 mi Calm Calm - N/A   Clear
5:56 AM 46.4 °F 45.0 °F 95% 30.34 in 10.0 mi Calm Calm - N/A   Clear
6:56 AM 45.3 °F 44.1 °F 95% 30.35 in 10.0 mi Calm Calm - N/A   Clear
7:56 AM 48.4 °F 46.2 °F 92% 30.36 in 10.0 mi Calm Calm - N/A   Clear
8:56 AM 56.1 °F 47.3 °F 72% 30.38 in 10.0 mi East 3.5 mph - N/A   Clear
9:56 AM 59.2 °F 45.3 °F 60% 30.39 in 10.0 mi ENE 3.5 mph - N/A   Clear
10:56 AM 61.3 °F 46.4 °F 58% 30.38 in 10.0 mi Calm Calm - N/A   Clear
11:56 AM 63.7 °F 45.7 °F 52% 30.37 in 10.0 mi Calm Calm - N/A   Mostly Cloudy
12:56 PM 67.1 °F 44.4 °F 44% 30.36 in 10.0 mi WSW 4.6 mph - N/A   Scattered Clouds
1:56 PM 68.9 °F 43.5 °F 40% 30.34 in 10.0 mi SW 3.5 mph - N/A   Clear
2:56 PM 70.5 °F 42.3 °F 36% 30.32 in 10.0 mi SSW 6.9 mph - N/A   Clear
3:56 PM 70.2 °F 38.8 °F 32% 30.31 in 10.0 mi Calm Calm - N/A   Partly Cloudy
5:56 PM 70.2 °F 42.6 °F 37% 30.31 in 10.0 mi SSW 3.5 mph - N/A   Clear
6:56 PM 66.9 °F 41.2 °F 39% 30.30 in 10.0 mi SSW 3.5 mph - N/A   Clear
7:56 PM 56.5 °F 45.3 °F 66% 30.30 in 10.0 mi Calm Calm - N/A   Clear
8:56 PM 54.0 °F 43.7 °F 68% 30.30 in 10.0 mi Calm Calm - N/A   Clear
9:56 PM 52.3 °F 44.6 °F 75% 30.30 in 10.0 mi Calm Calm - N/A   Clear
10:56 PM 48.7 °F 43.5 °F 82% 30.31 in 10.0 mi Calm Calm - N/A   Clear
11:56 PM 46.6 °F 43.5 °F 89% 30.30 in 10.0 mi Calm Calm - N/A   Clear